Weather History for Salida, CO

Change the Weather History Date:

Monday, September 23, 2013

  Actual Average (KGUC) Record (KGUC)
Temperature  
Mean Temperature 52 °F -  
Max Temperature 61 °F 65 °F 75 °F (2001)
Min Temperature 43 °F 30 °F 24 °F (2006)
Degree Days  
Heating Degree Days 13    
Growing Degree Days 2 (Base 50)    
Moisture  
Dew Point 33 °F    
Average Humidity 49    
Maximum Humidity 74    
Minimum Humidity 26    
Precipitation  
Precipitation 0.00 in - - ()
Sea Level Pressure  
Sea Level Pressure 30.07 in    
Wind  
Wind Speed 14 mph (West)    
Max Wind Speed 29 mph    
Max Gust Speed 41 mph    
Visibility 10 miles    
Events      
Averages and records for this station are not official NWS values.
T = Trace of Precipitation, MM = Missing Value Source: NWS Daily Summary

Daily Weather History Graph

Daily Weather History Graph

Search for Another Location

Airport:

Trip Planner

Search our weather history database for the weather conditions in past years. The results will help you decide how hot, cold, wet, or windy it might be!

Date:

Astronomy

Sep. 23, 2013 Rise Set
Actual Time 6:53 AM MDT 6:59 PM MDT
Civil Twilight 6:26 AM MDT 7:25 PM MDT
Nautical Twilight 5:55 AM MDT 7:56 PM MDT
Astronomical Twilight 5:24 AM MDT 8:27 PM MDT
Moon 9:36 PM MDT (9/23) 11:11 AM MDT (9/23)
Length of Visible Light 12h 58m
Length of Day
12h 06m
Waning Gibbous, 81% of the Moon is Illuminated
Sep 23
Waning Gibbous
Sep 26
Last Quarter
Oct 4
New
Oct 11
First Quarter
Oct 18
Full

Hourly Weather History & Observations

Time (MDT) Temp. Windchill Dew Point Humidity Pressure Visibility Wind Dir Wind Speed Gust Speed Precip Events Conditions
12:15 AM 47.3 °F - 38.5 °F 71% 29.87 in 10.0 mi SSW 11.5 mph 20.7 mph N/A   Mostly Cloudy
12:35 AM 46.6 °F - 38.5 °F 73% 29.86 in 10.0 mi SSW 13.8 mph 19.6 mph N/A   Mostly Cloudy
12:55 AM 47.3 °F - 37.8 °F 69% 29.85 in 10.0 mi WSW 12.7 mph 20.7 mph N/A   Overcast
1:15 AM 47.7 °F - 37.4 °F 68% 29.85 in 10.0 mi WSW 12.7 mph 18.4 mph N/A   Overcast
1:35 AM 47.1 °F - 38.3 °F 71% 29.85 in 10.0 mi SW 11.5 mph 18.4 mph N/A   Overcast
1:55 AM 46.4 °F 39.8 °F 37.9 °F 72% 29.86 in 10.0 mi West 16.1 mph 21.9 mph N/A   Overcast
2:15 AM 46.0 °F 40.2 °F 38.3 °F 74% 29.85 in 10.0 mi WSW 12.7 mph 18.4 mph N/A   Overcast
2:35 AM 46.4 °F 40.1 °F 36.7 °F 69% 29.84 in 10.0 mi WSW 15.0 mph 21.9 mph N/A   Overcast
2:55 AM 46.4 °F 40.7 °F 36.1 °F 67% 29.84 in 10.0 mi WSW 12.7 mph 18.4 mph N/A   Overcast
3:15 AM 46.4 °F 41.1 °F 36.3 °F 68% 29.84 in 10.0 mi WSW 11.5 mph 18.4 mph N/A   Overcast
3:35 AM 46.4 °F 41.9 °F 35.8 °F 67% 29.84 in 10.0 mi WSW 9.2 mph - N/A   Overcast
3:55 AM 46.4 °F 41.1 °F 35.6 °F 66% 29.83 in 10.0 mi WSW 11.5 mph - N/A   Mostly Cloudy
4:15 AM 47.8 °F - 34.7 °F 60% 29.84 in 10.0 mi West 19.6 mph 27.6 mph N/A   Overcast
4:35 AM 48.2 °F - 34.3 °F 59% 29.84 in 10.0 mi West 23.0 mph 29.9 mph N/A   Overcast
4:55 AM 48.0 °F - 34.0 °F 58% 29.85 in 10.0 mi West 13.8 mph 23.0 mph N/A   Mostly Cloudy
5:15 AM 47.7 °F - 34.9 °F 61% 29.85 in 10.0 mi NNW 10.4 mph 17.3 mph N/A   Scattered Clouds
5:35 AM 47.8 °F - 34.0 °F 59% 29.86 in 10.0 mi West 12.7 mph 18.4 mph N/A   Clear
5:55 AM 48.0 °F - 34.2 °F 59% 29.87 in 10.0 mi West 10.4 mph 20.7 mph N/A   Clear
6:15 AM 48.0 °F - 34.5 °F 60% 29.88 in 10.0 mi WNW 11.5 mph 21.9 mph N/A   Clear
6:35 AM 48.2 °F - 34.3 °F 59% 29.89 in 10.0 mi WNW 10.4 mph 16.1 mph N/A   Scattered Clouds
6:55 AM 48.2 °F - 34.5 °F 59% 29.90 in 10.0 mi NW 4.6 mph - N/A   Scattered Clouds
7:15 AM 48.0 °F - 34.2 °F 59% 29.90 in 10.0 mi NW 8.1 mph - N/A   Scattered Clouds
7:35 AM 48.2 °F - 34.7 °F 60% 29.92 in 10.0 mi NW 6.9 mph - N/A   Clear
7:55 AM 49.3 °F - 34.9 °F 58% 29.93 in 10.0 mi NW 8.1 mph - N/A   Clear
8:15 AM 49.3 °F - 36.1 °F 61% 29.94 in 10.0 mi West 13.8 mph 19.6 mph N/A   Clear
8:35 AM 52.9 °F - 34.0 °F 49% 29.94 in 10.0 mi West 18.4 mph 33.4 mph N/A   Clear
8:55 AM 53.6 °F - 34.5 °F 48% 29.97 in 10.0 mi WSW 19.6 mph 31.1 mph N/A   Clear
9:15 AM 53.8 °F - 34.9 °F 49% 29.98 in 10.0 mi West 18.4 mph 26.5 mph N/A   Mostly Cloudy
9:35 AM 53.8 °F - 34.0 °F 47% 29.98 in 10.0 mi West 18.4 mph 31.1 mph N/A   Scattered Clouds
9:55 AM 55.4 °F - 33.8 °F 44% 29.99 in 10.0 mi West 23.0 mph 32.2 mph N/A   Clear
10:15 AM 55.8 °F - 32.0 °F 41% 30.01 in 10.0 mi West 25.3 mph 34.5 mph N/A   Clear
10:35 AM 55.4 °F - 32.2 °F 41% 30.03 in 10.0 mi West 26.5 mph 34.5 mph N/A   Clear
10:55 AM 56.1 °F - 30.0 °F 37% 30.04 in 10.0 mi West 27.6 mph 38.0 mph N/A   Clear
11:15 AM 55.8 °F - 28.9 °F 36% 30.06 in 10.0 mi West 28.8 mph 41.4 mph N/A   Clear
11:35 AM 56.3 °F - 31.8 °F 39% 30.06 in 10.0 mi West 21.9 mph 36.8 mph N/A   Clear
11:55 AM 56.8 °F - 30.2 °F 36% 30.07 in 10.0 mi West 24.2 mph 32.2 mph N/A   Clear
12:15 PM 57.4 °F - 29.8 °F 35% 30.08 in 10.0 mi West 18.4 mph 33.4 mph N/A   Clear
12:35 PM 57.6 °F - 29.5 °F 34% 30.09 in 10.0 mi West 17.3 mph 29.9 mph N/A   Clear
12:55 PM 58.3 °F - 30.9 °F 35% 30.09 in 10.0 mi West 16.1 mph 28.8 mph N/A   Clear
1:15 PM 59.0 °F - 31.1 °F 35% 30.10 in 10.0 mi WSW 24.2 mph 32.2 mph N/A   Clear
1:35 PM 59.5 °F - 31.1 °F 34% 30.10 in 10.0 mi WSW 20.7 mph 33.4 mph N/A   Clear
1:55 PM 59.4 °F - 30.0 °F 33% 30.11 in 10.0 mi West 18.4 mph 25.3 mph N/A   Clear
2:15 PM 60.4 °F - 31.6 °F 34% 30.12 in 10.0 mi West 21.9 mph 25.3 mph N/A   Scattered Clouds
2:35 PM 60.3 °F - 32.2 °F 35% 30.12 in 10.0 mi West 23.0 mph 33.4 mph N/A   Scattered Clouds
2:55 PM 60.1 °F - 29.3 °F 31% 30.12 in 10.0 mi West 17.3 mph 24.2 mph N/A   Clear
3:15 PM 60.1 °F - 29.7 °F 32% 30.13 in 10.0 mi West 21.9 mph 28.8 mph N/A   Clear
3:35 PM 61.2 °F - 29.1 °F 30% 30.14 in 10.0 mi West 13.8 mph 25.3 mph N/A   Clear
3:55 PM 61.0 °F - 26.6 °F 27% 30.15 in 10.0 mi West 18.4 mph 26.5 mph N/A   Clear
4:15 PM 61.2 °F - 25.3 °F 26% 30.16 in 10.0 mi WSW 12.7 mph 27.6 mph N/A   Scattered Clouds
4:35 PM 60.4 °F - 27.3 °F 28% 30.17 in 10.0 mi West 16.1 mph 21.9 mph N/A   Clear
4:55 PM 59.5 °F - 28.0 °F 30% 30.18 in 10.0 mi West 20.7 mph 26.5 mph N/A   Clear
5:15 PM 59.4 °F - 27.7 °F 30% 30.19 in 10.0 mi West 17.3 mph 23.0 mph N/A   Clear
5:35 PM 58.8 °F - 28.4 °F 31% 30.20 in 10.0 mi WSW 12.7 mph 18.4 mph N/A   Clear
5:55 PM 58.1 °F - 28.6 °F 32% 30.21 in 10.0 mi West 18.4 mph 24.2 mph N/A   Clear
6:15 PM 57.0 °F - 28.8 °F 34% 30.22 in 10.0 mi WSW 11.5 mph 20.7 mph N/A   Clear
6:35 PM 55.6 °F - 30.2 °F 38% 30.24 in 10.0 mi West 10.4 mph - N/A   Clear
6:55 PM 54.0 °F - 30.9 °F 41% 30.24 in 10.0 mi West 12.7 mph - N/A   Clear
7:15 PM 52.3 °F - 32.0 °F 46% 30.25 in 10.0 mi West 10.4 mph 17.3 mph N/A   Clear
7:35 PM 52.0 °F - 32.0 °F 47% 30.25 in 10.0 mi West 12.7 mph - N/A   Clear
7:55 PM 51.1 °F - 32.0 °F 48% 30.27 in 10.0 mi West 11.5 mph - N/A   Clear
8:15 PM 50.7 °F - 31.5 °F 48% 30.29 in 10.0 mi NNW 8.1 mph - N/A   Clear
8:35 PM 52.0 °F - 30.6 °F 44% 30.30 in 10.0 mi West 5.8 mph - N/A   Clear
8:55 PM 51.6 °F - 30.4 °F 44% 30.31 in 10.0 mi WNW 8.1 mph - N/A   Clear
9:15 PM 51.8 °F - 30.0 °F 43% 30.32 in 10.0 mi West 8.1 mph - N/A   Clear
9:35 PM 50.7 °F - 30.6 °F 46% 30.33 in 10.0 mi WNW 6.9 mph - N/A   Clear
9:55 PM 48.2 °F - 31.8 °F 53% 30.34 in 10.0 mi West 6.9 mph - N/A   Clear
10:15 PM 46.4 °F 42.4 °F 32.0 °F 57% 30.34 in 10.0 mi WSW 8.1 mph - N/A   Clear
10:35 PM 45.1 °F 41.4 °F 32.2 °F 60% 30.34 in 10.0 mi WSW 6.9 mph - N/A   Clear
10:55 PM 45.0 °F 40.6 °F 32.0 °F 60% 30.35 in 10.0 mi West 8.1 mph - N/A   Clear
11:15 PM 44.1 °F 40.1 °F 31.8 °F 62% 30.35 in 10.0 mi West 6.9 mph - N/A   Clear
11:35 PM 43.3 °F 39.2 °F 32.0 °F 64% 30.35 in 10.0 mi West 6.9 mph - N/A   Clear
11:55 PM 43.7 °F 39.7 °F 32.0 °F 63% 30.35 in 10.0 mi West 6.9 mph - N/A   Clear